Terug naar catalogus

CZ-4 DEB

ActiefSSO
NORAD 32473·DEBRIS·🇨🇳 China

Gelanceerd Sep 19, 2007 vanaf Taiyuan Satellite Launch Center

Loading…

Volgende Passages (komende 24 uur)

TLE

VersSource: Space-Track

Epoch: Sep 13, 2026, 23:20 UTC

1 32473U 07042C   26256.97247008  .00002385  00000-0  44564-3 0  9994
2 32473  97.9584 262.1025 0085343 313.2533  46.1568 14.63512364991705

Volg CZ-4 DEB in realtime met AllMySat

Download on the App Store